Tracking 28091 objects as of 30-Sep-2023
HD Live streaming from Space Station
objects crossing your sky now

STARLINK-3266

Track STARLINK-3266 now!
10-day predictions
STARLINK-3266 is classified as:


NORAD ID: 50195
Int'l Code: 2021-125AR
Perigee: 545.8 km
Apogee: 547.9 km
Inclination: 53.2 °
Period: 95.4 minutes
Semi major axis: 6917 km
RCS: Unknown
Launch date: December 18, 2021
Source: United States (US)
Launch site: AIR FORCE WESTERN TEST RANGE (AFWTR)
Your satellite tracking list
Your tracking list is empty




NASA's NSSDC Master Catalog

Two Line Element Set (TLE):
1 50195U 21125AR  23273.18219786  .00001733  00000-0  12693-3 0  9998
2 50195  53.2154 281.2536 0001535  83.1793 276.9373 15.08840852101666
Source of the keplerian elements: AFSPC